St. Petersburg Airport, FL

9:11 AM EDT on August 18, 2017 (GMT -0400)
Saint Petersburg-Clearwater International

Weather History for KPIE - February, 2014

Change the Weather History Date:

Sunday, February 9, 2014

  Actual Average Record
Temperature  
Mean Temperature 62 °F -  
Max Temperature 70 °F 68 °F 83 °F (1949)
Min Temperature 54 °F 52 °F 42 °F (1958)
Degree Days  
Heating Degree Days 3    
Growing Degree Days 12 (Base 50)    
Moisture  
Dew Point 53 °F    
Average Humidity 80    
Maximum Humidity 97    
Minimum Humidity 53    
Precipitation  
Precipitation 0.00 in - - ()
Sea Level Pressure  
Sea Level Pressure 30.11 in    
Wind  
Wind Speed 7 mph (North)    
Max Wind Speed 13 mph    
Max Gust Speed -    
Visibility 9 miles    
Events Fog    
Averages and records for this station are not official NWS values.
T = Trace of Precipitation, MM = Missing Value Source: NWS Daily Summary

Daily Weather History Graph

Daily Weather History Graph

Search for Another Location

Airport or City:

Trip Planner

Search our weather history database for the weather conditions in past years. The results will help you decide how hot, cold, wet, or windy it might be!

Date:

Astronomy

Feb. 09, 2014 Rise Set
Actual Time 7:12 AM EST 6:17 PM EST
Civil Twilight 6:48 AM EST 6:41 PM EST
Nautical Twilight 6:20 AM EST 7:09 PM EST
Astronomical Twilight 5:53 AM EST 7:36 PM EST
Moon 2:05 PM EST (2/9) 3:08 AM EST (2/9)
Length of Visible Light 11h 53m
Length of Day
11h 04m
Waxing Gibbous, 77% of the Moon is Illuminated
Feb 9
Waxing Gibbous
Feb 14
Full
Feb 22
Last Quarter
Mar 1
New
Mar 8
First Quarter

Hourly Weather History & Observations

Time (EST) Temp. Dew Point Humidity Pressure Visibility Wind Dir Wind Speed Gust Speed Precip Events Conditions
12:53 AM 57.0 °F 55.0 °F 93% 30.12 in 10.0 mi ENE 5.8 mph - N/A   Overcast
1:53 AM 57.0 °F 55.0 °F 93% 30.10 in 10.0 mi ENE 5.8 mph - N/A   Overcast
2:53 AM 57.0 °F 54.0 °F 89% 30.09 in 10.0 mi ENE 5.8 mph - N/A   Overcast
3:53 AM 55.9 °F 55.0 °F 97% 30.07 in 10.0 mi ENE 5.8 mph - N/A   Overcast
4:46 AM 55.9 °F 54.0 °F 93% 30.08 in 10.0 mi North 6.9 mph - N/A   Overcast
4:53 AM 55.9 °F 54.0 °F 93% 30.09 in 10.0 mi North 6.9 mph - N/A   Overcast
5:53 AM 55.0 °F 54.0 °F 96% 30.09 in 4.0 mi North 6.9 mph - N/A   Overcast
6:53 AM 55.0 °F 54.0 °F 96% 30.11 in 10.0 mi NNE 5.8 mph - N/A   Overcast
7:53 AM 55.0 °F 54.0 °F 96% 30.12 in 10.0 mi North 8.1 mph - N/A   Overcast
8:33 AM 55.0 °F 54.0 °F 96% 30.13 in 0.5 mi North 9.2 mph - N/A Fog Fog
8:53 AM 54.0 °F 52.0 °F 93% 30.14 in 8.0 mi NNE 9.2 mph - N/A   Overcast
9:00 AM 55.9 °F 52.0 °F 87% 30.14 in 8.0 mi North 9.2 mph - N/A   Scattered Clouds
9:53 AM 59.0 °F 50.0 °F 72% 30.16 in 8.0 mi Variable 4.6 mph - N/A   Scattered Clouds
10:53 AM 62.1 °F 52.0 °F 70% 30.16 in 10.0 mi Variable 4.6 mph - N/A   Clear
11:53 AM 64.0 °F 52.0 °F 65% 30.14 in 10.0 mi Variable 3.5 mph - N/A   Clear
12:53 PM 66.9 °F 53.1 °F 61% 30.12 in 10.0 mi Calm Calm - N/A   Clear
1:53 PM 70.0 °F 52.0 °F 53% 30.09 in 10.0 mi NW 9.2 mph - N/A   Clear
2:53 PM 70.0 °F 52.0 °F 53% 30.08 in 10.0 mi NW 11.5 mph - N/A   Clear
3:53 PM 69.1 °F 52.0 °F 54% 30.06 in 10.0 mi NNW 10.4 mph - N/A   Clear
4:53 PM 66.9 °F 50.0 °F 54% 30.07 in 10.0 mi NW 10.4 mph - N/A   Clear
5:53 PM 63.0 °F 48.0 °F 58% 30.08 in 10.0 mi NW 12.7 mph - N/A   Clear
6:53 PM 57.9 °F 51.1 °F 78% 30.09 in 10.0 mi NW 6.9 mph - N/A   Clear
7:53 PM 57.9 °F 52.0 °F 81% 30.10 in 10.0 mi North 8.1 mph - N/A   Clear
8:53 PM 57.0 °F 52.0 °F 83% 30.10 in 10.0 mi North 5.8 mph - N/A   Clear
9:53 PM 55.9 °F 53.1 °F 90% 30.12 in 10.0 mi North 5.8 mph - N/A   Clear
10:53 PM 55.9 °F 53.1 °F 90% 30.12 in 10.0 mi North 4.6 mph - N/A   Clear
11:53 PM 57.0 °F 54.0 °F 89% 30.11 in 10.0 mi North 8.1 mph - N/A   Clear